EW6800 Weather Reports


Display with metric or nautical units.
time (UTC)temp
F
wind
direction
speed
MPH
gust
MPH
rain 1hr
in
rain 24hr
in
rain mn
in
humidity
%
barometer
mb
20260510093055 46 306 7.0 11.0 0.00 0.00 0.00 96 1014.5
20260510092551 46 317 6.0 11.0 0.00 0.00 0.00 96 1014.5
20260510092045 46 316 7.0 11.0 0.00 0.00 0.00 96 1014.6
20260510091555 46 315 7.0 11.0 0.00 0.00 0.00 96 1014.6
20260510091047 46 321 7.0 11.0 0.00 0.00 0.00 96 1014.6
20260510090548 46 299 8.0 11.0 0.00 0.00 0.00 96 1014.6
20260510090056 46 302 7.0 11.0 0.00 0.00 0.00 96 1014.6
20260510085544 46 310 6.0 10.0 0.00 0.00 0.00 96 1014.7
20260510085044 46 306 5.0 10.0 0.00 0.00 0.00 96 1014.7
20260510084600 46 313 6.0 10.0 0.00 0.00 0.00 96 1014.8
20260510084044 46 306 7.0 10.0 0.00 0.00 0.00 96 1014.8
20260510083545 46 291 5.0 11.0 0.00 0.00 0.00 96 1014.7
20260510083112 46 302 7.0 12.0 0.00 0.00 0.00 96 1014.7
20260510082544 46 325 7.0 12.0 0.00 0.00 0.00 96 1014.7
20260510082044 47 338 7.0 12.0 0.00 0.00 0.00 96 1014.9
20260510081627 46 308 6.0 10.0 0.00 0.00 0.00 96 1014.9
20260510081044 46 309 5.0 10.0 0.00 0.00 0.00 96 1014.9
20260510080547 46 314 6.0 10.0 0.00 0.00 0.00 96 1014.8
20260510080056 47 294 5.0 10.0 0.00 0.00 0.00 96 1014.8
20260510075544 46 300 6.0 11.0 0.00 0.00 0.00 96 1015.0
20260510075044 46 306 6.0 11.0 0.00 0.00 0.00 96 1015.0
20260510074556 47 296 7.0 10.0 0.00 0.00 0.00 96 1015.1
20260510074046 47 307 5.0 9.0 0.00 0.00 0.00 96 1015.1
20260510073544 47 305 6.0 9.0 0.00 0.00 0.00 96 1015.1
20260510073053 47 312 5.0 9.0 0.00 0.00 0.00 96 1015.1
20260510072544 47 301 5.0 10.0 0.00 0.00 0.00 96 1015.1
20260510072043 47 304 5.0 10.0 0.00 0.00 0.00 95 1015.1
20260510071550 47 305 5.0 10.0 0.00 0.00 0.00 95 1015.1
20260510071048 47 299 5.0 8.0 0.00 0.00 0.00 96 1015.1
20260510070544 47 304 5.0 8.0 0.00 0.00 0.00 96 1015.1
20260510070053 47 306 4.0 8.0 0.00 0.00 0.00 96 1015.1
20260510065548 47 313 4.0 8.0 0.00 0.00 0.00 96 1015.0
20260510065044 47 311 4.0 9.0 0.00 0.00 0.00 96 1015.1
20260510064553 47 294 4.0 9.0 0.00 0.00 0.00 96 1015.0
20260510064044 47 304 4.0 8.0 0.00 0.00 0.00 96 1015.0
20260510063545 47 308 4.0 8.0 0.00 0.00 0.00 96 1015.1
20260510063055 47 305 4.0 8.0 0.00 0.00 0.00 96 1015.2
20260510062547 47 311 4.0 8.0 0.00 0.00 0.00 95 1015.2
20260510062045 47 304 4.0 8.0 0.00 0.00 0.00 95 1015.1
20260510061556 47 303 5.0 8.0 0.00 0.00 0.00 95 1015.1
20260510061044 47 302 4.0 8.0 0.00 0.00 0.00 95 1015.1
20260510060544 47 310 4.0 8.0 0.00 0.00 0.00 95 1015.1
20260510060053 47 297 4.0 8.0 0.00 0.00 0.00 95 1015.1
20260510055544 47 304 4.0 9.0 0.00 0.00 0.00 95 1015.2
20260510055044 47 301 4.0 9.0 0.00 0.00 0.00 95 1015.1
20260510054554 48 299 4.0 9.0 0.00 0.00 0.00 95 1015.1
20260510054044 48 296 4.0 9.0 0.00 0.00 0.00 95 1015.1
20260510053545 48 302 5.0 9.0 0.00 0.00 0.00 95 1015.2
20260510053056 48 301 4.0 8.0 0.00 0.00 0.00 95 1015.1
20260510052544 48 300 4.0 8.0 0.00 0.00 0.00 95 1015.2
20260510052044 48 299 4.0 8.0 0.00 0.00 0.00 95 1015.2
20260510051551 48 302 4.0 8.0 0.00 0.00 0.00 95 1015.1
20260510051047 48 312 4.0 9.0 0.00 0.00 0.00 95 1015.1
20260510050544 48 315 5.0 9.0 0.00 0.00 0.00 95 1015.2
20260510050055 48 298 6.0 9.0 0.00 0.00 0.00 95 1015.2
20260510045544 48 294 4.0 8.0 0.00 0.00 0.00 95 1015.2
20260510045044 48 297 4.0 7.0 0.00 0.00 0.00 95 1015.2
20260510044551 48 308 3.0 8.0 0.00 0.00 0.00 95 1015.1
20260510044044 48 298 4.0 8.0 0.00 0.00 0.00 95 1015.1
20260510043544 48 300 4.0 8.0 0.00 0.00 0.00 95 1015.1
20260510043107 48 309 4.0 8.0 0.00 0.00 0.00 95 1015.0
20260510042544 48 304 4.0 9.0 0.00 0.00 0.00 95 1015.0
20260510042047 48 300 4.0 9.0 0.00 0.00 0.00 95 1015.0
20260510041555 48 308 5.0 9.0 0.00 0.00 0.00 95 1014.8
20260510041044 48 307 4.0 9.0 0.00 0.00 0.00 95 1014.9
20260510040544 48 309 5.0 9.0 0.00 0.00 0.00 95 1014.8
20260510040104 49 299 5.0 9.0 0.00 0.00 0.00 95 1014.8
20260510035544 49 299 4.0 9.0 0.00 0.00 0.00 95 1014.8
20260510035044 49 310 5.0 8.0 0.00 0.00 0.00 95 1014.9
20260510034558 49 298 5.0 8.0 0.00 0.00 0.00 95 1014.8
20260510034045 49 305 4.0 9.0 0.00 0.00 0.00 94 1014.9
20260510033548 49 317 5.0 9.0 0.00 0.00 0.00 94 1014.8
20260510033049 49 304 5.0 9.0 0.00 0.00 0.00 94 1014.7
20260510032544 49 298 5.0 10.0 0.00 0.00 0.00 94 1014.7
20260510032044 49 295 5.0 10.0 0.00 0.00 0.00 94 1014.7
20260510031602 49 311 6.0 10.0 0.00 0.00 0.00 94 1014.7
20260510031044 49 296 5.0 10.0 0.00 0.00 0.00 94 1014.7
20260510030543 49 298 5.0 10.0 0.00 0.00 0.00 94 1014.7
20260510030052 49 306 6.0 10.0 0.00 0.00 0.00 94 1014.6
20260510025544 49 307 5.0 10.0 0.00 0.00 0.00 94 1014.5
20260510025044 49 300 5.0 10.0 0.00 0.00 0.00 93 1014.6
20260510024548 50 303 5.0 9.0 0.00 0.00 0.00 93 1014.6
20260510024044 50 293 5.0 9.0 0.00 0.00 0.00 93 1014.5
20260510023544 50 312 5.0 9.0 0.00 0.00 0.00 93 1014.5
20260510023053 50 310 4.0 10.0 0.00 0.00 0.00 92 1014.5
20260510022544 50 309 6.0 11.0 0.00 0.00 0.00 92 1014.5
20260510022044 51 302 7.0 11.0 0.00 0.00 0.00 92 1014.5
20260510021559 51 311 8.0 11.0 0.00 0.00 0.00 91 1014.5
20260510021044 51 307 7.0 12.0 0.00 0.00 0.00 91 1014.6
20260510020543 51 296 8.0 12.0 0.00 0.00 0.00 91 1014.6
20260510020051 52 309 8.0 12.0 0.00 0.00 0.00 90 1014.6
20260510015545 52 311 8.0 12.0 0.00 0.00 0.00 89 1014.6
20260510015039 53 294 8.0 12.0 0.00 0.00 0.00 88 1014.7
20260510014552 53 309 8.0 12.0 0.00 0.00 0.00 88 1014.7
20260510014043 53 321 8.0 12.0 0.00 0.00 0.00 88 1014.8
20260510013547 54 303 8.0 12.0 0.00 0.00 0.00 87 1014.8
20260510013104 54 288 8.0 12.0 0.00 0.00 0.00 87 1014.9
20260510012545 54 290 8.0 11.0 0.00 0.00 0.00 87 1014.9
20260510012043 54 313 8.0 11.0 0.00 0.00 0.00 86 1014.8
20260510011546 54 294 7.0 11.0 0.00 0.00 0.00 86 1014.9
20260510011044 55 297 8.0 12.0 0.00 0.00 0.00 86 1014.8
20260510010540 55 282 8.0 12.0 0.00 0.00 0.00 86 1014.7
20260510010051 55 302 7.0 12.0 0.00 0.00 0.00 85 1015.0
20260510005540 55 292 7.0 12.0 0.00 0.00 0.00 85 1015.0
20260510005042 56 310 8.0 12.0 0.00 0.00 0.00 84 1015.1
20260510004551 56 315 8.0 12.0 0.00 0.00 0.00 83 1015.1
20260510004040 56 299 7.0 12.0 0.00 0.00 0.00 82 1014.9
20260510003544 57 304 7.0 12.0 0.00 0.00 0.00 82 1014.8
20260510003051 57 302 7.0 12.0 0.00 0.00 0.00 81 1015.0
20260510002547 57 300 7.0 12.0 0.00 0.00 0.00 81 1014.9
20260510002043 57 305 8.0 12.0 0.00 0.00 0.00 81 1014.9
20260510001554 57 309 7.0 12.0 0.00 0.00 0.00 81 1014.9
20260510001043 58 304 8.0 11.0 0.00 0.00 0.00 80 1014.9
20260510000543 58 300 7.0 11.0 0.00 0.00 0.00 80 1015.0
20260510000051 59 304 6.0 11.0 0.00 0.00 0.00 79 1015.0
20260509235545 59 298 6.0 11.0 0.00 0.00 0.00 78 1015.1
20260509235043 60 309 6.0 11.0 0.00 0.00 0.00 77 1015.1
20260509234547 60 289 5.0 10.0 0.00 0.00 0.00 77 1015.0
20260509234045 60 313 6.0 10.0 0.00 0.00 0.00 77 1015.1
20260509233544 60 304 5.0 9.0 0.00 0.00 0.00 77 1015.0
20260509233046 61 301 5.0 10.0 0.00 0.00 0.00 76 1015.0
20260509232546 61 298 5.0 11.0 0.00 0.00 0.00 76 1015.0
20260509232045 61 286 5.0 13.0 0.00 0.00 0.00 74 1015.1
20260509231559 62 299 6.0 13.0 0.00 0.00 0.00 75 1015.2
20260509231043 62 293 6.0 12.0 0.00 0.00 0.00 75 1015.1
20260509230543 62 286 6.0 12.0 0.00 0.00 0.00 75 1015.2
20260509230054 62 303 6.0 10.0 0.00 0.00 0.00 74 1015.2
20260509225544 62 298 6.0 11.0 0.00 0.00 0.00 75 1015.2
20260509225043 62 292 7.0 11.0 0.00 0.00 0.00 75 1015.2
20260509224557 62 290 6.0 11.0 0.00 0.00 0.00 75 1015.3
20260509224043 61 296 7.0 11.0 0.00 0.00 0.00 76 1015.3
20260509223543 62 292 6.0 10.0 0.00 0.00 0.00 76 1015.3
20260509223049 62 300 7.0 11.0 0.00 0.00 0.00 76 1015.3
20260509222544 62 288 6.0 11.0 0.00 0.00 0.00 76 1015.4
20260509222044 62 298 6.0 11.0 0.00 0.00 0.00 76 1015.4
20260509221551 62 294 6.0 11.0 0.00 0.00 0.00 76 1015.5
20260509221044 62 299 7.0 12.0 0.00 0.00 0.00 76 1015.4
20260509220543 62 301 7.0 12.0 0.00 0.00 0.00 76 1015.5
20260509220055 62 309 7.0 12.0 0.00 0.00 0.00 76 1015.5
20260509215545 62 286 7.0 12.0 0.00 0.00 0.00 76 1015.4
20260509215044 62 296 7.0 12.0 0.00 0.00 0.00 75 1015.4
20260509214554 62 299 7.0 13.0 0.00 0.00 0.00 75 1015.4
20260509214045 63 307 7.0 13.0 0.00 0.00 0.00 75 1015.6
20260509213543 63 294 7.0 12.0 0.00 0.00 0.00 74 1015.6
20260509213056 63 298 6.0 13.0 0.00 0.00 0.00 75 1015.7
20260509212546 63 302 7.0 13.0 0.00 0.00 0.00 75 1015.7
20260509212043 63 305 7.0 12.0 0.00 0.00 0.00 75 1015.7
20260509211551 63 312 6.0 12.0 0.00 0.00 0.00 74 1015.7
20260509211043 63 306 7.0 12.0 0.00 0.00 0.00 75 1015.8
20260509210544 64 298 6.0 11.0 0.00 0.00 0.00 74 1015.9
20260509210107 64 300 6.0 11.0 0.00 0.00 0.00 73 1016.0
20260509205543 64 311 5.0 11.0 0.00 0.00 0.00 73 1016.0
20260509205047 65 298 6.0 10.0 0.00 0.00 0.00 73 1016.1
20260509204559 65 301 6.0 10.0 0.00 0.00 0.00 73 1016.0
20260509204046 65 303 6.0 10.0 0.00 0.00 0.00 74 1016.1
20260509203542 65 298 6.0 10.0 0.00 0.00 0.00 74 1016.2
20260509203057 65 313 6.0 10.0 0.00 0.00 0.00 73 1016.2
20260509202544 65 317 6.0 10.0 0.00 0.00 0.00 74 1016.2
20260509202047 65 305 6.0 10.0 0.00 0.00 0.00 75 1016.2
20260509201556 64 299 6.0 10.0 0.00 0.00 0.00 75 1016.2
20260509201043 64 315 6.0 11.0 0.00 0.00 0.00 75 1016.3
20260509200547 64 342 5.0 11.0 0.00 0.00 0.00 75 1016.3
20260509200109 64 311 5.0 11.0 0.00 0.00 0.00 75 1016.2
20260509195549 64 303 6.0 11.0 0.00 0.00 0.00 75 1016.2
20260509195046 64 310 5.0 11.0 0.00 0.00 0.00 74 1016.3
20260509194559 64 298 5.0 9.0 0.00 0.00 0.00 75 1016.4
20260509194120 64 310 5.0 9.0 0.00 0.00 0.00 74 1016.4
20260509193543 64 311 5.0 9.0 0.00 0.00 0.00 75 1016.3
20260509193053 64 315 4.0 9.0 0.00 0.00 0.00 75 1016.4
20260509192544 64 298 4.0 8.0 0.00 0.00 0.00 74 1016.4
20260509192044 64 310 4.0 8.0 0.00 0.00 0.00 74 1016.3
20260509191547 64 312 4.0 8.0 0.00 0.00 0.00 75 1016.3
20260509191043 63 305 3.0 7.0 0.00 0.00 0.00 75 1016.4
20260509190543 63 297 3.0 7.0 0.00 0.00 0.00 75 1016.4
20260509190056 63 306 3.0 7.0 0.00 0.00 0.00 76 1016.4
20260509185544 63 312 3.0 7.0 0.00 0.00 0.00 75 1016.4
20260509185044 62 314 3.0 7.0 0.00 0.00 0.00 76 1016.4
20260509184624 62 307 2.0 5.0 0.00 0.00 0.00 75 1016.5
20260509184047 62 309 3.0 5.0 0.00 0.00 0.00 76 1016.4
20260509183543 62 310 2.0 5.0 0.00 0.00 0.00 76 1016.4
20260509183058 61 325 2.0 4.0 0.00 0.00 0.00 76 1016.4
20260509182545 61 326 2.0 5.0 0.00 0.00 0.00 77 1016.4
20260509182044 61 326 2.0 5.0 0.00 0.00 0.00 76 1016.4
20260509181551 60 327 2.0 5.0 0.00 0.00 0.00 77 1016.5
20260509181044 60 311 3.0 5.0 0.00 0.00 0.00 77 1016.4
20260509180545 60 309 2.0 5.0 0.00 0.00 0.00 78 1016.3
20260509180100 60 314 2.0 5.0 0.00 0.00 0.00 78 1016.4
20260509175545 59 324 2.0 4.0 0.00 0.00 0.00 79 1016.3
20260509175042 59 324 2.0 5.0 0.00 0.00 0.00 79 1016.4
20260509174551 59 324 2.0 5.0 0.00 0.00 0.00 79 1016.4
20260509174042 58 319 2.0 4.0 0.00 0.00 0.00 79 1016.4
20260509173543 58 303 2.0 4.0 0.00 0.00 0.00 79 1016.3
20260509173054 58 323 1.0 3.0 0.00 0.00 0.00 80 1016.3
20260509172544 57 323 2.0 3.0 0.00 0.00 0.00 81 1016.2
20260509172043 56 323 1.0 3.0 0.00 0.00 0.00 81 1016.3
20260509171549 56 323 1.0 4.0 0.00 0.00 0.00 83 1016.2
20260509171047 55 323 1.0 4.0 0.00 0.00 0.00 83 1016.1
20260509170546 55 323 2.0 4.0 0.00 0.00 0.00 84 1016.2
20260509170058 54 323 2.0 4.0 0.00 0.00 0.00 85 1016.1
20260509165543 53 323 2.0 4.0 0.00 0.00 0.00 85 1016.2
20260509165043 53 323 2.0 4.0 0.00 0.00 0.00 86 1016.3
20260509164551 52 323 2.0 4.0 0.00 0.00 0.00 86 1016.3
20260509164047 52 323 2.0 4.0 0.00 0.00 0.00 86 1016.2
20260509163545 52 323 2.0 4.0 0.00 0.00 0.00 86 1016.3
20260509163109 51 323 2.0 4.0 0.00 0.00 0.00 86 1016.2
20260509162546 51 323 2.0 4.0 0.00 0.00 0.00 86 1016.2
20260509162044 51 323 3.0 5.0 0.00 0.00 0.00 85 1016.2
20260509161550 51 323 3.0 5.0 0.00 0.00 0.00 84 1016.2
20260509161046 52 323 2.0 4.0 0.00 0.00 0.00 84 1016.2
20260509160544 52 315 2.0 4.0 0.00 0.00 0.00 83 1016.3
20260509160051 52 313 1.0 3.0 0.00 0.00 0.00 82 1016.3
20260509155543 52 313 2.0 3.0 0.00 0.00 0.00 81 1016.1
20260509155043 53 313 1.0 3.0 0.00 0.00 0.00 79 1016.1
20260509154554 54 313 1.0 3.0 0.00 0.00 0.00 77 1016.2
20260509154048 55 313 0.0 3.0 0.00 0.00 0.00 74 1016.2
20260509153544 56 0 1.0 3.0 0.00 0.00 0.00 72 1016.1
20260509153044 57 311 2.0 3.0 0.00 0.00 0.00 67 1016.2
20260509152544 59 0 0.0 2.0 0.00 0.00 0.00 68 1016.0
20260509152045 59 0 0.0 2.0 0.00 0.00 0.00 69 1016.0
20260509151557 58 0 0.0 2.0 0.00 0.00 0.00 69 1016.0
20260509151044 58 0 0.0 1.0 0.00 0.00 0.00 72 1015.9
20260509150545 57 0 0.0 1.0 0.00 0.00 0.00 73 1015.8
20260509150054 56 0 0.0 0.0 0.00 0.00 0.00 70 1015.8
20260509145544 55 0 0.0 2.0 0.00 0.01 0.00 71 1015.9
20260509145044 55 0 0.0 3.0 0.00 0.01 0.00 70 1015.7
20260509144553 54 309 0.0 3.0 0.00 0.01 0.00 70 1015.8
20260509144043 53 309 2.0 3.0 0.00 0.01 0.00 70 1015.7
20260509143543 52 309 2.0 3.0 0.00 0.01 0.00 75 1015.7
20260509143055 52 309 2.0 5.0 0.00 0.01 0.00 74 1015.6
20260509142543 52 309 2.0 5.0 0.00 0.01 0.00 74 1015.7
20260509142047 52 309 3.0 5.0 0.00 0.01 0.00 75 1015.7
20260509141559 53 302 3.0 5.0 0.00 0.01 0.00 73 1015.6
20260509141048 53 302 3.0 5.0 0.00 0.01 0.00 71 1015.4
20260509140544 55 306 3.0 5.0 0.00 0.01 0.00 67 1015.4
20260509135544 59 317 2.0 4.0 0.00 0.01 0.00 57 1015.3
20260509135044 60 318 2.0 6.0 0.00 0.01 0.00 51 1015.4
20260509134545 60 318 3.0 7.0 0.00 0.01 0.00 52 1015.3
20260509134043 60 313 4.0 7.0 0.00 0.01 0.00 53 1015.3
20260509133544 59 313 4.0 8.0 0.00 0.01 0.00 54 1015.3
20260509133051 58 318 4.0 8.0 0.00 0.01 0.00 56 1015.2
20260509132544 57 315 4.0 8.0 0.00 0.01 0.00 57 1015.3
20260509132043 57 315 4.0 8.0 0.00 0.01 0.00 58 1015.2
20260509131551 56 315 4.0 8.0 0.00 0.01 0.00 58 1015.2
20260509131043 54 313 5.0 8.0 0.00 0.01 0.00 62 1015.3
20260509130546 53 312 5.0 8.0 0.00 0.01 0.00 65 1015.3
20260509125545 54 313 3.0 6.0 0.00 0.01 0.00 68 1015.3
20260509125044 53 316 4.0 6.0 0.00 0.01 0.00 68 1015.2
20260509124552 51 311 4.0 5.0 0.00 0.01 0.00 72 1015.1
20260509124044 50 302 2.0 5.0 0.00 0.01 0.00 76 1015.1
20260509123544 50 298 3.0 5.0 0.00 0.01 0.00 78 1015.2
20260509123058 50 298 3.0 5.0 0.00 0.01 0.00 78 1015.2
20260509122543 51 309 3.0 4.0 0.00 0.01 0.00 76 1015.2
20260509122045 51 309 3.0 4.0 0.00 0.01 0.00 75 1015.2
20260509121554 52 309 3.0 5.0 0.00 0.01 0.00 73 1015.2
20260509121048 52 309 3.0 5.0 0.00 0.01 0.00 71 1015.2
20260509120544 53 308 3.0 5.0 0.00 0.01 0.00 70 1015.2
20260509120050 54 309 0.0 0.0 0.00 0.01 0.00 66 1015.3
20260509115543 55 0 0.0 0.0 0.00 0.01 0.00 64 1015.4
20260509115043 55 0 0.0 0.0 0.00 0.01 0.00 62 1015.4
20260509114550 56 0 0.0 0.0 0.00 0.01 0.00 61 1015.5
20260509114043 56 0 0.0 0.0 0.00 0.01 0.00 62 1015.4
20260509113543 56 0 0.0 0.0 0.00 0.01 0.00 62 1015.4
20260509113106 56 0 0.0 0.0 0.00 0.01 0.00 62 1015.4
20260509112545 56 0 0.0 0.0 0.00 0.01 0.00 61 1015.6
20260509112044 56 0 0.0 0.0 0.00 0.01 0.00 61 1015.5
20260509111548 55 0 0.0 3.0 0.00 0.01 0.00 62 1015.4
20260509111045 55 0 0.0 3.0 0.00 0.01 0.00 63 1015.4
20260509110547 54 23 2.0 3.0 0.00 0.01 0.00 64 1015.4
20260509110048 54 23 1.0 3.0 0.00 0.01 0.00 66 1015.4
20260509105543 53 0 0.0 2.0 0.00 0.01 0.00 68 1015.4
20260509105045 52 0 0.0 3.0 0.00 0.01 0.00 70 1015.4
20260509104556 51 314 1.0 6.0 0.00 0.01 0.00 70 1015.4
20260509104045 51 314 2.0 7.0 0.00 0.01 0.00 73 1015.6
20260509103543 51 304 4.0 7.0 0.00 0.01 0.00 74 1015.5
20260509103057 54 296 3.0 7.0 0.00 0.01 0.00 70 1015.6
20260509102544 56 321 3.0 4.0 0.00 0.01 0.00 63 1015.6
20260509102045 56 338 2.0 3.0 0.00 0.01 0.00 58 1015.6
20260509101549 56 340 0.0 2.0 0.00 0.01 0.00 59 1015.6
20260509101044 55 0 0.0 0.0 0.00 0.01 0.00 63 1015.7
20260509100544 55 0 0.0 0.0 0.00 0.01 0.00 64 1015.6
20260509100219 54 0 0.0 0.0 0.00 0.01 0.00 66 1015.6
20260509095544 53 0 0.0 0.0 0.00 0.01 0.00 67 1015.7
20260509095044 52 0 0.0 0.0 0.00 0.01 0.00 68 1015.7
20260509094554 52 0 0.0 2.0 0.00 0.01 0.00 70 1015.7
20260509094043 51 0 0.0 5.0 0.00 0.01 0.00 71 1015.8
20260509093543 51 0 0.0 5.0 0.00 0.01 0.00 71 1015.8